Flag for U.S.A. Weather past 2 weeks in Vancouver, Washington, U.S.A.

Now
54 °F

Scattered clouds.


Feels Like: 53 °F
Forecast: 47 / 57 °F
Wind: 5 mph from Southwest

Location: Vancouver - Pearson Airpark


UV Index: 3 (Moderate)

Visibility: 10 mi


Pressure: 29.89 "Hg

Humidity: 72%

Dew point: 45 °F

Location of VancouverLocation

Historic Weather in Vancouver

°F

Vancouver temperature yesterday

Maximum temperature yesterday: 54 °F (at 12:53 PM)
Minimum temperature yesterday: 46 °F (at 3:53 AM)
Average temperature yesterday: 50 °F

Past Weeks' High & Low Weather Summary

 TemperatureHumidityPressure
High71 °F (Apr 13, 3:53 PM)96% (Apr 18, 7:01 AM)30.30 "Hg (Apr 18, 7:01 AM)
Low37 °F (Apr 13, 5:53 AM)19% (Apr 13, 5:53 PM)29.72 "Hg (Apr 24, 3:53 AM)
Average53 °F66%30.07 "Hg
* Reported Apr 9 10:53 AM — Apr 24 10:53 AM, Vancouver, Weather by CustomWeather, © 2014

Note: Actual official high and low records may vary slightly from our data, if they occured in-between our weather recording intervals... More about our weather records

Advertising

Historic Weather Conditions — Data for Previous 24 hours

 ConditionsComfort  
Time TempWeatherWind HumidityBarometerVisibility
10:53 AM
Apr 24
49 °FRain. Mostly cloudy.10 mph80%29.89 "Hg3 mi
9:53 AM56 °FBroken clouds.8 mph67%29.84 "Hg10 mi
8:53 AM53 °FBroken clouds.5 mph86%29.81 "Hg10 mi
7:53 AM52 °FMore clouds than sun.5 mph86%29.78 "Hg10 mi
6:53 AM52 °FLight rain. Mostly cloudy.6 mph89%29.74 "Hg7 mi
5:53 AM53 °FLight rain. Fog.6 mph86%29.73 "Hg5 mi
4:53 AM53 °FLight rain. Mostly cloudy.9 mph83%29.73 "Hg10 mi
3:53 AM52 °FLight rain. Mostly cloudy.9 mph89%29.72 "Hg10 mi
2:53 AM53 °FLight rain. Mostly cloudy.10 mph83%29.73 "Hg10 mi
1:53 AM54 °FLight rain. Mostly cloudy.9 mph80%29.74 "Hg10 mi
12:53 AM54 °FOvercast.12 mph80%29.74 "Hg10 mi
11:53 PM
Apr 23
54 °FMostly cloudy.10 mph83%29.75 "Hg10 mi
10:53 PM54 °FOvercast.7 mph86%29.76 "Hg10 mi
9:53 PM53 °FLight rain. Overcast.7 mph89%29.76 "Hg10 mi
8:53 PM53 °FLight rain. Fog.9 mph89%29.77 "Hg6 mi
7:53 PM53 °FLight rain. Overcast.9 mph86%29.78 "Hg9 mi
6:53 PM53 °FLight rain. Overcast.6 mph89%29.80 "Hg8 mi
5:53 PM53 °FLight rain. Cloudy.7 mph86%29.82 "Hg8 mi
4:53 PM53 °FLight rain. Mostly cloudy.8 mph83%29.84 "Hg9 mi
3:53 PM53 °FLight rain. Overcast.8 mph83%29.87 "Hg8 mi
2:53 PM54 °FLight rain. Cloudy.9 mph77%29.90 "Hg10 mi
1:53 PM53 °FLight rain. Mostly cloudy.5 mph77%29.91 "Hg10 mi
12:53 PM54 °FMostly cloudy.10 mph69%29.92 "Hg10 mi
Weather by CustomWeather, © 2014

See weather overview